Terug naar catalogus

FENGYUN 1C DEB

ActiefPO
NORAD 30558·DEBRIS·🇨🇳 China

Gelanceerd May 10, 1999 vanaf Taiyuan Satellite Launch Center

Loading…

Volgende Passages (komende 24 uur)

TLE

VersSource: Space-Track

Epoch: Sep 13, 2026, 14:22 UTC

1 30558U 99025AKY 26256.59912688  .00001094  00000-0  15048-2 0  9999
2 30558  99.4736  20.5466 0421240 328.8523  28.8239 13.29433937944090

Volg FENGYUN 1C DEB in realtime met AllMySat

Download on the App Store